Danville, VA

2:51 PM EDT on June 23, 2017 (GMT -0400)
Danville Regional

Weather History for KDAN - December, 2012

Change the Weather History Date:

Thursday, December 6, 2012

  Actual Average Record
Temperature  
Mean Temperature 42 °F 42 °F  
Max Temperature 50 °F 52 °F 78 °F (1998)
Min Temperature 33 °F 32 °F 18 °F (1974)
Degree Days  
Heating Degree Days 23 23  
Month to date heating degree days 80 133  
Since 1 July heating degree days 907 842  
Cooling Degree Days 0 0  
Month to date cooling degree days 0 0  
Year to date cooling degree days 1594 1439  
Moisture  
Dew Point 28 °F    
Average Humidity 59    
Maximum Humidity 75    
Minimum Humidity 42    
Precipitation  
Precipitation T in 0.12 in 1.19 in (1954)
Month to date precipitation 0.01 0.71  
Year to date precipitation 26.38 41.85  
Snow  
Snow 0.00 in - - ()
Month to date snowfall 0.0  
Since 1 July snowfall 0.0  
Snow Depth 0.00 in    
Sea Level Pressure  
Sea Level Pressure 30.27 in    
Wind  
Wind Speed 5 mph (ENE)    
Max Wind Speed 13 mph    
Max Gust Speed -    
Visibility 10 miles    
Events      
T = Trace of Precipitation, MM = Missing Value Source: NWS Daily Summary

Daily Weather History Graph

Daily Weather History Graph

Search for Another Location

Airport or City:

Trip Planner

Search our weather history database for the weather conditions in past years. The results will help you decide how hot, cold, wet, or windy it might be!

Date:

Astronomy

Dec. 06, 2012 Rise Set
Actual Time 7:15 AM EST 5:01 PM EST
Civil Twilight 6:47 AM EST 5:30 PM EST
Nautical Twilight 6:14 AM EST 6:02 PM EST
Astronomical Twilight 5:43 AM EST 6:33 PM EST
Moon No Moon Rise 12:16 PM EST (12/6)
Length of Visible Light 10h 42m
Length of Day
9h 45m
Waning Gibbous, 49% of the Moon is Illuminated
Dec 6
Waning Gibbous
Dec 13
New
Dec 20
First Quarter
Dec 28
Full
Jan 4
Last Quarter

Hourly Weather History & Observations

Time (EST) Temp. Windchill Dew Point Humidity Pressure Visibility Wind Dir Wind Speed Gust Speed Precip Events Conditions
12:53 AM 43.0 °F 38.8 °F 28.0 °F 56% 30.22 in 10.0 mi ENE 6.9 mph - N/A   Clear
1:53 AM 44.1 °F 39.0 °F 28.9 °F 55% 30.24 in 10.0 mi ENE 9.2 mph - N/A   Clear
2:53 AM 42.1 °F 37.1 °F 28.9 °F 60% 30.26 in 10.0 mi ENE 8.1 mph - N/A   Clear
3:53 AM 39.0 °F 34.8 °F 28.0 °F 65% 30.27 in 10.0 mi NE 5.8 mph - N/A   Scattered Clouds
4:53 AM 37.9 °F 32.7 °F 28.0 °F 68% 30.27 in 10.0 mi ENE 6.9 mph - N/A   Partly Cloudy
5:53 AM 37.9 °F 32.1 °F 28.0 °F 68% 30.30 in 10.0 mi ENE 8.1 mph - N/A   Clear
6:53 AM 34.0 °F 28.0 °F 26.1 °F 73% 30.32 in 10.0 mi NE 6.9 mph - N/A   Clear
7:53 AM 35.1 °F 30.1 °F 26.1 °F 70% 30.34 in 10.0 mi NNE 5.8 mph - N/A   Clear
8:53 AM 39.0 °F 31.8 °F 26.1 °F 60% 30.35 in 10.0 mi NE 11.5 mph - N/A   Clear
9:53 AM 42.1 °F 36.6 °F 26.1 °F 53% 30.36 in 10.0 mi ENE 9.2 mph - N/A   Clear
10:53 AM 44.1 °F 40.1 °F 25.0 °F 47% 30.34 in 10.0 mi ENE 6.9 mph - N/A   Clear
11:53 AM 45.0 °F 41.2 °F 25.0 °F 46% 30.30 in 10.0 mi East 6.9 mph - N/A   Clear
12:53 PM 46.9 °F - 26.1 °F 44% 30.28 in 10.0 mi Variable 4.6 mph - N/A   Clear
1:53 PM 48.9 °F - 26.1 °F 41% 30.26 in 10.0 mi NE 3.5 mph - N/A   Clear
2:53 PM 48.9 °F - 26.1 °F 41% 30.24 in 10.0 mi East 4.6 mph - N/A   Overcast
3:53 PM 48.0 °F - 26.1 °F 42% 30.25 in 10.0 mi East 4.6 mph - N/A   Overcast
4:53 PM 48.0 °F - 27.0 °F 44% 30.25 in 10.0 mi Calm Calm - N/A   Overcast
5:53 PM 46.9 °F - 27.0 °F 46% 30.24 in 10.0 mi Calm Calm - N/A   Overcast
6:53 PM 46.9 °F - 28.0 °F 48% 30.26 in 10.0 mi Calm Calm - N/A   Overcast
8:53 PM 46.9 °F - 30.0 °F 52% 30.25 in 10.0 mi Calm Calm - N/A   Overcast
9:53 PM 45.0 °F - 34.0 °F 65% 30.24 in 10.0 mi Calm Calm - 0.00 in   Overcast
10:53 PM 44.1 °F - 36.0 °F 73% 30.24 in 10.0 mi Calm Calm - 0.00 in   Overcast
11:53 PM 45.0 °F - 36.0 °F 71% 30.22 in 10.0 mi Calm Calm - N/A   Overcast